Jacksonville, AR

12:12 AM CDT on August 26, 2016 (GMT -0500)
Little Rock Air Force Base

Weather History for KLRF - July, 2013

Change the Weather History Date:

Monday, July 8, 2013

  Actual Average Record
Temperature  
Mean Temperature 82 °F -  
Max Temperature 95 °F 91 °F 105 °F (1998)
Min Temperature 70 °F 68 °F 55 °F (1972)
Cooling Degree Days 18    
Growing Degree Days 32 (Base 50)    
Moisture  
Dew Point 71 °F    
Average Humidity 67    
Maximum Humidity 94    
Minimum Humidity 45    
Precipitation  
Precipitation 0.00 in - - ()
Sea Level Pressure  
Sea Level Pressure 30.08 in    
Wind  
Wind Speed 3 mph (SSE)    
Max Wind Speed 10 mph    
Max Gust Speed 17 mph    
Visibility 10 miles    
Events      
Averages and records for this station are not official NWS values.
T = Trace of Precipitation, MM = Missing Value Source: NWS Daily Summary

Daily Weather History Graph

Daily Weather History Graph

Search for Another Location

Airport or City:

Trip Planner

Search our weather history database for the weather conditions in past years. The results will help you decide how hot, cold, wet, or windy it might be!

Date:

Astronomy

Jul. 08, 2013 Rise Set
Actual Time 6:02 AM CDT 8:25 PM CDT
Civil Twilight 5:32 AM CDT 8:54 PM CDT
Nautical Twilight 4:56 AM CDT 9:30 PM CDT
Astronomical Twilight 4:17 AM CDT 10:09 PM CDT
Moon 6:28 AM CDT (7/8) 8:32 PM CDT (7/8)
Length of Visible Light 15h 21m
Length of Day
14h 22m
New Moon, 0% of the Moon is Illuminated
Jul 8
New Moon
Jul 15
First Quarter
Jul 22
Full
Jul 29
Last Quarter
Aug 6
New

Hourly Weather History & Observations

Time (CDT) Temp. Heat Index Dew Point Humidity Pressure Visibility Wind Dir Wind Speed Gust Speed Precip Events Conditions
12:58 AM 73.9 °F - 69.6 °F 86% 30.07 in 10.0 mi Calm Calm - N/A   Clear
1:58 AM 73.0 °F - 69.4 °F 88% 30.07 in 10.0 mi ENE 1.2 mph - N/A   Clear
2:58 AM 72.7 °F - 69.6 °F 90% 30.07 in 10.0 mi NNE 2.3 mph - N/A   Clear
3:58 AM 72.1 °F - 69.8 °F 92% 30.07 in 10.0 mi Calm Calm - N/A   Clear
4:58 AM 71.1 °F - 69.1 °F 93% 30.08 in 10.0 mi Calm Calm - N/A   Clear
5:58 AM 70.3 °F - 68.5 °F 94% 30.09 in 10.0 mi Calm Calm - N/A   Clear
6:58 AM 72.3 °F - 69.8 °F 92% 30.10 in 10.0 mi Calm Calm - N/A   Clear
7:58 AM 79.0 °F - 72.5 °F 80% 30.11 in 10.0 mi Variable 2.3 mph - N/A   Clear
8:58 AM 82.6 °F 88.1 °F 72.7 °F 72% 30.12 in 10.0 mi SSW 3.5 mph - N/A   Clear
9:58 AM 85.3 °F 91.8 °F 72.9 °F 66% 30.13 in 10.0 mi SSW 5.8 mph - N/A   Clear
10:58 AM 87.8 °F 95.2 °F 73.0 °F 61% 30.13 in 10.0 mi Variable 4.6 mph - N/A   Partly Cloudy
11:58 AM 89.4 °F 96.8 °F 72.1 °F 57% 30.13 in 10.0 mi Variable 5.8 mph 17.3 mph N/A   Scattered Clouds
12:58 PM 91.2 °F 98.5 °F 71.8 °F 53% 30.11 in 10.0 mi South 10.4 mph - N/A   Scattered Clouds
1:58 PM 93.0 °F 100.7 °F 72.0 °F 50% 30.09 in 10.0 mi SE 6.9 mph - N/A   Partly Cloudy
2:58 PM 94.3 °F 101.6 °F 71.1 °F 47% 30.08 in 10.0 mi South 8.1 mph - N/A   Partly Cloudy
3:58 PM 94.6 °F 101.1 °F 70.0 °F 45% 30.06 in 10.0 mi South 8.1 mph - N/A   Partly Cloudy
4:58 PM 95.0 °F 102.5 °F 71.4 °F 46% 30.05 in 10.0 mi SSE 5.8 mph - N/A   Scattered Clouds
5:58 PM 94.1 °F 100.6 °F 70.7 °F 46% 30.04 in 10.0 mi South 8.1 mph - N/A   Clear
6:58 PM 91.9 °F 99.0 °F 71.2 °F 51% 30.04 in 10.0 mi South 6.9 mph - N/A   Clear
7:58 PM 89.6 °F 96.2 °F 71.2 °F 55% 30.05 in 10.0 mi South 3.5 mph - N/A   Clear
8:58 PM 86.7 °F 92.1 °F 70.7 °F 59% 30.05 in 10.0 mi South 3.5 mph - N/A   Clear
9:58 PM 85.3 °F 90.4 °F 71.1 °F 62% 30.07 in 10.0 mi South 4.6 mph - N/A   Clear
10:58 PM 84.7 °F 90.4 °F 71.6 °F 65% 30.08 in 10.0 mi South 5.8 mph - N/A   Scattered Clouds
11:58 PM 82.8 °F 87.7 °F 71.8 °F 69% 30.08 in 10.0 mi South 4.6 mph - N/A   Clear